LIVE VIDEO: WUSA 9 Tonight    Watch
 

Current Temps

Weather Temperatures Right Now
Weather Temperatures - Feels Like

Interactive Temperatures Map | Weather by Zip Code

National Weather Service Data
ASUS41 Bulletin

Most recent data in the last 24 hours

890 
ASUS41 KAKQ 212310  WSI PPS:212310
RWRAKQ

REGIONAL WEATHER ROUNDUP
NATIONAL WEATHER SERVICE WAKEFIELD VA
700 PM EDT TUE OCT 21 2014

Note: "fair" indicates few or no clouds below 12,000 feet with no
significant weather and/or obstructions to visibility. * = Denotes
station may not report precipitation (e.g., rain,snow,etc.),
thunder or fog.

VAZ042-051-052>054-056-220000-
NORTHERN VIRGINIA
  
CITY           SKY/WX    TMP DP  RH WIND       PRES   REMARKS
WASH NATIONAL  LGT RAIN  60  51  72 NW13G21   29.86R                  
DULLES         CLOUDY    55  52  89 NW7       29.88R                  
FORT BELVOIR   PTCLDY    57  53  87 NW7       29.86R                  
QUANTICO       CLOUDY    57  53  86 NW10      29.88R                  
FREDERICKSBRG* RAIN      58  53  82 NW12G20   29.86R                  
STAFFORD*      DRIZZLE   55  55 100 NW9       29.92R                  
WARRENTON      HVY RAIN  55  55 100 CALM      29.89R                  
CULPEPER*      RAIN      55  54  94 N5        29.90R                  
MANASSAS*      NOT AVBL                                               
LEESBURG*      CLOUDY    54  54 100 NW8       29.88S                  
WINCHESTER     CLOUDY    54  46  76 NW3       29.89R                  
FRONT ROYAL*   CLOUDY    52  50  93 CALM      29.88S                  
LURAY*         CLOUDY    55  48  76 NW3       29.90R                  
$$

VAZ048-049-060>072-079>083-220000-
CENTRAL AND SOUTH CENTRAL VIRGINIA...AND NORTH CENTRAL NORTH CAROLINA
  
CITY           SKY/WX    TMP DP  RH WIND       PRES   REMARKS
RICHMOND       RAIN      63  53  70 S7        29.83R                  
CHESTERFIELD*  CLOUDY   N/A N/A N/A CALM      29.84R                  
PETERSBURG*    CLOUDY    58  53  82 CALM      29.84R                  
HANOVER        CLOUDY    61  50  67 CALM      29.84R                  
TAPPAHANNOCK*  MOCLDY    61  49  66 CALM      29.82R                  
CHARLOTTSVILLE CLOUDY    56  49  77 NW5       29.87R                  
ORANGE*        DRIZZLE   54  52  94 N3        29.89R                  
LOUISA*        CLOUDY    55  52  88 CALM      29.86R                  
FARMVILLE*     CLOUDY    61  45  55 W3        29.85R                  
CREWE*         CLOUDY    63  46  53 NW6       29.85R                  
FORT PICKETT*  CLOUDY    63  47  55 NW10      29.85R                  
LUNENBURG*     CLOUDY    63  48  59 NW6       29.86R                  
SOUTH HILL*    CLOUDY    66  48  52 NW6       29.91R                  
LAWRENCEVILLE* CLOUDY    60  55  82 CALM      29.84R                  
ROANOKE RAPIDS CLOUDY    59  55  88 CALM      29.85R                  
RALEIGH        MOCLDY    64  51  62 CALM      29.86R                  
$$

VAZ088>098-220000-
SOUTHEAST VIRGINIA
  
CITY           SKY/WX    TMP DP  RH WIND       PRES   REMARKS
NORFOLK        MOCLDY    66  51  58 CALM      29.83R                  
VIRGINIA BEACH MOCLDY    66  53  63 SE6       29.83R                  
NORFOLK NAVAL  MOCLDY    69  51  52 CALM      29.84R                  
WEST POINT*    CLOUDY    65  55  71 N3        29.84R                  
NEWPORT NEWS   PTCLDY    67  52  58 SW3       29.82R                  
LANGLEY AFB    PTCLDY    61  54  77 S5        29.82R                  
FORT EUSTIS    CLEAR     66  51  58 SW3       29.81R                  
WILLIAMSBURG*  PTCLDY    64  57  77 SW3       29.83R                  
HR EXEC AP*    MOCLDY    57  52  82 CALM      29.85R                  
FRANKLIN*      MOCLDY    61  54  77 CALM      29.84R                  
WAKEFIELD      CLOUDY    61  55  81 CALM      29.83R                  
$$

VAZ020-022-025-037-045-220000-
WEST CENTRAL AND SOUTHWEST VIRGINIA
  
CITY           SKY/WX    TMP DP  RH WIND       PRES   REMARKS
STAUNTON*      DRIZZLE   53  49  86 N3        29.91S                  
HOT SPRINGS VA CLOUDY    42  40  91 W20G26    29.89S                  
LYNCHBURG      PTCLDY    56  41  57 W10G20    29.90R                  
DANVILLE       CLOUDY    63  41  44 W9        29.90R                  
SOUTH BOSTON*  NOT AVBL                                               
MARTINSVILLE   MOCLDY    58  43  57 NW5       29.95R                  
ROANOKE        MOCLDY    53  40  61 W8        29.95R                  
BLACKSBURG     LGT RAIN  48  45  87 W8        29.99R                  
DUBLIN*        CLOUDY    49  43  81 NW10G20   30.00R                  
MARION*        LGT RAIN  49  39  69 NW10G21   30.02R                  
HILLSVILLE*    CLOUDY    49  36  60 W17G23    29.96R                  
RICHLANDS*     CLOUDY    49  40  71 N15G24    30.03R                  
WISE*          CLOUDY    46  36  66 NW9G18    30.07R                  
ABINGDON*      CLOUDY    53  39  59 N3        30.03R                  
$$

MDZ021>025-VAZ099-100-220000-
SOUTHERN MARYLAND AND THE DELMARVA PENINSULA
  
CITY           SKY/WX    TMP DP  RH WIND       PRES   REMARKS
PATUXENT RIVER MOCLDY    63  51  65 S5        29.81S                  
BAY BRIDGE APT   N/A     63  46  55 CALM      29.83R                  
LEONARDTOWN    CLOUDY    61  50  67 SW5       29.84R                  
DOVER          MOCLDY    58  52  81 S1        29.81R                  
GEORGETOWN     PTCLDY    61  53  75 CALM      29.82S                  
EASTON         MOCLDY    61  50  67 CALM      29.85R                  
CAMBRIDGE      PTCLDY    59  50  72 CALM      29.81S                  
SALISBURY      PTCLDY    62  52  69 CALM      29.81S                  
OCEAN CITY     CLEAR     59  55  87 CALM      29.81S                  
WALLOPS ISLAND MOCLDY    61  52  72 W3        29.83R                  
ACCOMACK*      PTCLDY    59  52  77 CALM      29.82S                  
$$

NCZ012>017-030>032-220000-
EASTERN NORTH CAROLINA
  
CITY           SKY/WX    TMP DP  RH WIND       PRES   REMARKS
ELIZABETH CITY CLEAR     68  51  54 W3        29.84R                  
AHOSKIE*       CLOUDY    61  55  82 CALM      29.85R                  
EDENTON*       CLEAR     63  55  75 CALM      29.84R                  
CURRITUCK*     CLEAR     66  51  58 W3        29.84R                  
KILL DEVIL HLS CLOUDY    66  58  74 CALM      29.83R                  
MANTEO         PTCLDY    68  59  73 S9        29.84S                  
CAPE HATTERAS  CLEAR     70  60  70 SW10      29.85R                  
TARBORO*       CLOUDY    63  58  84 CALM      29.85S                  
GOLDSBORO      CLOUDY    66  60  81 W1        29.83R                  
WASHINGTON     CLEAR     62  55  77 CALM      29.85R                  
GREENVILLE     PTCLDY    64  57  77 CALM      29.87S                  
NEW BERN       MOCLDY    67  60  78 S3        29.86R                  
WILMINGTON     MOCLDY    69  57  65 SW7       29.86R                  
$$

VAZ048-220000-
ELSEWHERE
  
CITY           SKY/WX    TMP DP  RH WIND       PRES   REMARKS
HARRISBURG PA  CLOUDY    56  52  86 CALM      29.86R                  
BALTIMORE      HVY RAIN  57  54  88 W17       29.85R FOG              
ANNAPOLIS      CLOUDY    62  54  74 NW3       29.83R                  
ANDREWS AFB    LGT RAIN  58  52  80 W13G23    29.85R                  
WILMINGTON DE  MOCLDY    57  52  83 NW6       29.84R                  
PHILADELPHIA   MOCLDY    67  47  48 NW6       29.83R                  
WILDWOOD NJ*   CLEAR     57  48  72 CALM      29.84R                  
ATLANTIC CITY  CLEAR     57  52  83 CALM      29.83R                  
HENDERSON NC   CLOUDY    64  47  54 NW6       29.87R                  
GREENSBORO     MOCLDY    63  40  42 NW12      29.90R                  
ROCKY MOUNT    CLOUDY    63  57  81 CALM      29.85R                  
FAYETTEVILLE   MOCLDY    70  51  51 W3        29.85R                  
CHARLOTTE      PTCLDY    64  41  42 NW7       29.91R                  
$$

VAZ100-220000-
MARINE
  
STATION/POSITION TIME  TEMP    WIND        PRES    WAVE   SWELL
                       AIR SEA DIR/SP/G            HT/PER HT/PER
                 (UTC) (F)     (DEG/KT/KT) (MB)    (FT/S) (FT/S)
44066 TX TWR #4  2300   65 67  270/  4/  6 1010.4R   4/ 7   3/ 7
CAPE MAY NJ      2300   61 67   CALM  /  2 1009.4S
LEWES DE         2300   61 64  170/  2/  3 1009.6S
15NM E FENWICK I 2300   67 67  190/  4/  6 1009.6R   3/ 6   3/ 6
OCEAN-CITY-INLET 2300   65 66  240/  3/  3 1008.9S
WACHAPREAGUE VA  2300   62 65  310/  2/  2 1009.8S
THOMAS POINT MD  2300   64 65   40/  4/  5 1011.1R
GOOSES REEF MD   2300   66     100/  6/  6 1009.9S
COVE POINT MD    2300   66     110/  3/  3 1009.4R
SOLOMONS ISLAND  2300      67                N/A
BISHOPS HEAD MD  2300   63 62  170/  5/  5 1009.0S
PINEY POINT MD   2300          160/  7/  8   N/A
POTOMAC MD       2300   65     130/  6/  6 1008.8R
CAMBRIDGE MD     2300   64 63     CALM     1009.2S
LEWISETTA VA     2300   63 63  160/  3/  3 1009.3R
RAPPAHANNOCK LGT 2300           90/  5/  5 1010.1S
STINGRAY PT      2300   66     100/  8/  8 1010.1F
YORK RVR RNG VA  2300   67     170/  8/  9 1009.0S
YORKTOWN VA      2300   66 68  210/  4/  5 1009.2R
JAMESTOWN VA     2300   65     250/  4/  4   N/A
DOMINION TERM VA 2300   68     220/  4/  4 1009.7S
KIPTOPEKE VA     2300      71  100/  2/  3   N/A
CHES BAY BRIDGE  2300   69 67  240/  4/  4 1009.4R
CHESAPEAKE LGHT  2200   67      50/  4/  4 1010.4R
WILLOUBY STN VA  2300   69     220/  6/  6 1008.5S
S CRANEY ISL VA  2300          240/  3/  4 1009.6R
CAPE HENRY BUOY  2300      70                N/A     2/11
1ST LANDING BUOY 2300   68      60/  2/  4 1009.5S
CAPE CHARLES BUO 2300      69                N/A     2/ 9   2/ 9
64NM E OF VA BCH 2300   69 69  210/  8/ 10 1009.9R   3/ 9   2/ 9
DUCK PIER NC     2300   69 69  180/  6/  6 1009.5R
44100 DUCK FRF   2300      71                N/A     2/11   2/11
44056 DUCK FRF   2300                        N/A     2/ 9   2/13
OREGON INLET NC  2300   69 68  190/ 12/ 14 1010.5R
HATTERAS NC      2300   71 72  240/  8/ 12 1011.1R
DIAMOND SHLS NC  2300   73     220/ 16/ 19 1010.4F   3/ 9   2/ 9
CAPE LOOKOUT NC  2200   71     220/  6/  8 1010.6S
$$



ASUS41 Bulletin

Most recent data in the last 24 hours

954 
ASUS41 KLWX 212310  WSI PPS:212311
RWRLWX

REGIONAL WEATHER ROUNDUP
NATIONAL WEATHER SERVICE BALTIMORE MD/WASHINGTON DC
700 PM EDT TUE OCT 21 2014

Note: "FAIR" indicates few or no clouds below 12,000 feet
with no significant weather and/or obstructions to visibility.
 TC=TEMPERATURE CELSIUS

 * =Non NWS site. Station does not report precipitation (e.g. rain,
    snow, etc.), thunder, or fog.

DCZ001-MDZ009-015-VAZ040>042-051-053>054-220000-
WASHINGTON METRO
  
CITY           SKY/WX    TMP DP  RH WIND       PRES   REMARKS
WASHINGTON NAT LGT RAIN  60  51  72 NW13G21   29.86R                  
DULLES         CLOUDY    55  52  89 NW7       29.88R                  
ANDREWS AFB    LGT RAIN  58  52  80 W13G23    29.85R                  
FT BELVOIR     PTCLDY    57  53  87 NW7       29.86R                  
QUANTICO       CLOUDY    57  53  86 NW10      29.88R                  
LEESBURG*      CLOUDY    54  54 100 NW8       29.88S                  
GAITHERSBURG*  CLOUDY    54  48  82 NW10G17   29.91R                  

$$

MDZ006>007-011-014-220000-
BALTIMORE METRO
  
CITY           SKY/WX    TMP DP  RH WIND       PRES   REMARKS
BWI AIRPORT    HVY RAIN  57  54  88 W17       29.85R FOG              
MD SCIENCE CTR   N/A     64  50  60 MISG      29.84R                  
MARTIN STATE   MOCLDY    63  55  77 N5        29.85R                  
ANNAPOLIS      CLOUDY    62  54  74 NW3       29.83R                  
FORT MEADE*    CLOUDY    54  52  94 W10       29.88R                  

$$

MDZ012-015-019>023-220000-
MARYLAND EASTERN SHORE
  
CITY           SKY/WX    TMP DP  RH WIND       PRES   REMARKS
OCEAN CITY     CLEAR     59  55  87 CALM      29.81S                  
SALISBURY      PTCLDY    62  52  69 CALM      29.81S                  
BAY BRIDGE AP*   N/A     63  46  55 CALM      29.83R                  
CAMBRIDGE*     PTCLDY    59  50  72 CALM      29.81S                  
EASTON*        MOCLDY    61  50  67 CALM      29.85R                  

$$

MDZ017>025-220000-
SOUTHERN MARYLAND
  
CITY           SKY/WX    TMP DP  RH WIND       PRES   REMARKS
PATUXENT RIVER MOCLDY    63  51  65 S5        29.81S                  
ST INIGOES     PTCLDY    60  51  72 SE5       29.81R                  
LEONARDTOWN*   CLOUDY    61  50  67 SW5       29.84R                  

$$

MDZ003>005-220000-
NORTH CENTRAL MARYLAND
  
CITY           SKY/WX    TMP DP  RH WIND       PRES   REMARKS
FREDERICK*     CLOUDY    61  48  63 MISG      29.91R                  
HAGERSTOWN APT CLOUDY    53  49  86 CALM      29.90R                  
WESTMINSTER*   DRIZZLE   55  52  88 NW5       29.87R                  

$$

MDZ501>502-220000-
WESTERN MARYLAND
  
CITY           SKY/WX    TMP DP  RH WIND       PRES   REMARKS
OAKLAND*       CLOUDY    43 N/A N/A NW9       29.91S FOG              
CUMBERLAND*    MOCLDY    52  50  93 CALM      29.95R                  

$$

VAZ025>031-220000-
SHENANDOAH VALLEY
  
CITY           SKY/WX    TMP DP  RH WIND       PRES   REMARKS
WINCHESTER*    CLOUDY    54  46  76 NW3       29.89R                  
FRONT ROYAL*   CLOUDY    52  50  93 CALM      29.88S                  
LURAY*         CLOUDY    55  48  76 NW3       29.90R                  
NEW MARKET*    CLOUDY    50  49  97 CALM      29.90R                  
STAUNTON*      DRIZZLE   53  49  86 N3        29.91S                  
WAYNESBORO*    CLOUDY    52  45  75 N5        29.89R                  

$$

WVZ021-048>050-054>055-220000-
EASTERN WEST VIRGINIA PANHANDLE
  
CITY           SKY/WX    TMP DP  RH WIND       PRES   REMARKS
MARTINSBURG    CLOUDY    54  47  77 N5        29.90R                  
PETERSBURG*    CLOUDY   N/A N/A N/A CALM      29.93R                  

$$

VAZ036>039-050-220000-
CENTRAL FOOTHILLS
  
CITY           SKY/WX    TMP DP  RH WIND       PRES   REMARKS
CHARLOTTESVILL CLOUDY    56  49  77 NW5       29.87R                  
CULPEPER*      RAIN      55  54  94 N5        29.90R                  
ORANGE*        DRIZZLE   54  52  94 N3        29.89R                  
GORDONSVILLE*  CLOUDY    54  51  90 NE3       29.87R                  
WARRENTON*     HVY RAIN  55  55 100 CALM      29.89R                  

$$

VAZ055>057-220000-
NORTH AND CENTRAL PIEDMONT
  
CITY           SKY/WX    TMP DP  RH WIND       PRES   REMARKS
FREDERICKSBRG* RAIN      58  53  82 NW12G20   29.86R                  
STAFFORD*      DRIZZLE   55  55 100 NW9       29.92R                  

$$

NCZ024-NYZ072-PAZ021-071-VAZ022-071-220000-
OTHER REGIONAL OBSERVATIONS
  
CITY           SKY/WX    TMP DP  RH WIND       PRES   REMARKS
NEW YORK CITY  CLOUDY    62  53  72 E6        29.88R                  
PHILADELPHIA   MOCLDY    67  47  48 NW6       29.83R                  
PITTSBURGH     DRIZZLE   48  45  89 NW13      29.97R                  
ROANOKE        MOCLDY    53  40  61 W8        29.95R                  
RICHMOND       RAIN      63  53  70 S7        29.83R                  
RALEIGH        MOCLDY    64  51  62 CALM      29.86R                  

$$

ANZ530>537-220000-
MARINE OBSERVATIONS
  
STATION/POSITION TIME  TEMP    WIND        PRES
                       AIR SEA DIR/SP/G
                 (UTC) (F)     (DEG/KT/KT) (MB)
THOMAS PT LIGHT  2300   64 65   40/  4/  5 1011.1R
BALT KEY BRIDGE  2300   63      60/  1/  1 1009.9R
COVE POINT       2300   66     110/  3/  3 1009.4R
LEWISETTA        2300   63 63  160/  3/  3 1009.3R
SOLOMONS ISLAND  2300      67                N/A
PINEY POINT      2300          160/  7/  8   N/A

$$



Weather Maps

LOCAL DOPPLER RADAR

LOCAL FORECAST

METRO ZONE WEATHER

REGIONAL WEATHER

EASTERN WEATHER

NATIONAL WEATHER

SEVERE WEATHER

Weather Cams
Topper Shutt Weather Blog
Howard Bernstein Weather Blog
Erica Grow Weather Blog
Weather Photos
Get automated phone alerts when severe weather is in your area. Sign up for the WUSA9 First Alert Weather Call.